Delray Beach, FL

3:29 AM EST on December 20, 2014 (GMT -0500)
Palm Beach International | Change Station
CLOSE
Current Station
Airport
Location: West Palm Beach,
Elevation: 20 ft
Nearby Weather Stations

Elev 20 ft 26.68 °N, 80.10 °W | Updated 36 minutes ago

Mostly Cloudy
Mostly Cloudy
68 °F
Feels Like 68 °F
N
5
Wind Variable Wind from West

Today
High -- | Low -- °F
--% Chance of Precip.
Yesterday
High -- | Low -- °F
Precip. -- in
7:03 AM 5:32 PM
Waning Crescent, 4% visible
Pressure 30.04 in
Visibility 10.0 miles
Clouds Mostly Cloudy 3000 ft
Overcast 4800 ft
Dew Point 62 °F
Humidity 81%
Rainfall 0.00 in
Snow Depth Not available.
UV 0 out of 12
Pollen 4.00 out of 12
Air Quality Not available.
Flu Activity Not available.
METAR KPBI 200753Z 28004KT 10SM BKN030 OVC048 20/17 A3004 RMK AO2 SLP173 T02000167

More Conditions Fewer Conditions

Pressure 30.04 in
Visibility 10.0 miles
Clouds Mostly Cloudy 3000 ft
Overcast 4800 ft
Dew Point 62 °F
Humidity 81%
Rainfall 0.00 in
Snow Depth Not available.
UV 0 out of 12
Pollen 4.00 out of 12
Air Quality Not available.
Flu Activity Not available.
METAR KPBI 200753Z 28004KT 10SM BKN030 OVC048 20/17 A3004 RMK AO2 SLP173 T02000167

More Conditions Fewer Conditions

10-Day Weather Forecast

Almanac

Astronomy

Dec. 20, 2014 Rise Set
Actual Time
Civil Twilight
Nautical Twilight
Astronomical Twilight
Moon
Length of Visible Light
Length of Day
Tomorrow will be .
, % of the Moon is Illuminated

Today's Extremes

State Highs State Lows

Community

WunderPhotos

Upload Photos

1,779,146 photos uploaded!

WunderBlogs® & News

Nearby

Air Quality

  Air Quality AQ Index Pollutant
Not available.

Snow Depth

Station Depth Elevation

Earthquake Activity

City Distance Mag. Time & Date
Minimum magnitude displayed is 2.5.

Coastal Water Temperatures

Place Temperature

Nearby Weather Stations